User: anonymous   Login
Location: Unspecified
(0.0000°N, 0.0000°E)
Time: 19:53:42
(UTC+00:00)
Language:

OAO 3 Copernicus - Orbit

View from above orbital plane
View from above orbital plane
View from above satellite
View from above satellite

Ground track
Ground track

The orbit data is extracted from the following two-line orbital elements,

1 06153U 72065A   17269.20726361  .00000066  00000-0  18653-4 0  9996
2 06153  35.0065 197.0347 0006900 178.6679 327.9387 14.57848254395639
Epoch (UTC): 26 September 2017 04:58:27
Eccentricity: 0.0006900
inclination: 35.0065°
perigee height: 695 km
apogee height: 705 km
right ascension of ascending node: 197.0347°
argument of perigee: 178.6679°
revolutions per day: 14.57848254
mean anomaly at epoch: 327.9387°
orbit number at epoch: 39563

The dashed part of the orbit path shows where the satellite is in the earth's shadow,  

DLR